SBSPSBRJ

Guest
Details From SBSP - Sao Paulo Congonhas
To SBRJ - Santos-Dumont
Flight Number -
Tags decoded
Created
Modified
Stats Distance 197 nm / 366 km
Max Altitude 0 ft / 0 m
Waypoints 2
Social Downloads 3
Likes 0
Share VATSIM

Download

Looking for another format? Having issues loading an existing format? Contact us
Advertisement - Login to hide

Notes

Requested: SBSP DORLU IMDAB VUREP UGRAD RJ031 RJ032 RJ033 RJ034 SBRJ Unmatched points: DORLU IMDAB VUREP UGRAD RJ031 RJ032 RJ033 RJ034

Route

SBSP SBRJ

ID Type Via Altitude Latitude Longitude Leg Dist Tot Dist Heading (true) Name
O SBSP APT - 0 ft / 0 m -23.62669˚ -46.65538˚ - 0 nm - Sao Paulo Congonhas
O SBRJ APT - 0 ft / 0 m -22.91046˚ -43.16313˚ 197 nm 197 nm 78° / 77° Santos-Dumont

Altitude Profile

Advertisement - Login to hide

Weather


0- 5 10 15 20 25 30 35+ Temperature / ° C

Clouds and Precipitation
Forecast for 2018-05-24 12:00 UTC. Updated an hour ago

Ground ~20,000 ft ~40,000 ft Winds

SBSP

Details ICAO SBSP (CGH)
Name Sao Paulo Congonhas
Region Brazil
Timezone America/Sao_Paulo (UTC-3.0)
Stats Elevation 2,631 ft / 802 m (AMSL)
Location -23.626693° -46.655377°
Runways 2
Magnetic Variation 21.348° W

METAR

SBSP 241200Z 11007KT 9999 FEW011 16/12 Q1027

Decode

TAF

TAF SBSP 240900Z 2412/2512 10003KT CAVOK TX23/2417Z TN13/2509Z BECMG 2413/2415 14005KT BECMG 2418/2420 BKN012 BECMG 2422/2424 CAVOK BECMG 2504/2506 6000 BKN010 PROB30 2506/2511 4000 BR BKN005 RMK PGH

Decode

Departure Runways

ID Width Length Bearing (true) Bearing (mag) Surface Threshold Offset Overrun Length
17L 147 ft / 45 m 4,726 ft / 1,441 m 147.28° 168.63° Asphalt 0 ft / 0 m 220 ft / 67 m
17R 147 ft / 45 m 6,406 ft / 1,953 m 147.39° 168.74° Asphalt 413 ft / 126 m 0 ft / 0 m
35L 147 ft / 45 m 6,406 ft / 1,953 m 327.38° 348.73° Asphalt 200 ft / 61 m 0 ft / 0 m
35R 147 ft / 45 m 4,726 ft / 1,441 m 327.28° 348.63° Asphalt 0 ft / 0 m 0 ft / 0 m

SBRJ

Details ICAO SBRJ (SDU)
Name Santos-Dumont
Region Brazil
Timezone Unknown (UTC+0.0)
Stats Elevation 11 ft / 3 m (AMSL)
Location -22.910460° -43.163133°
Runways 2
Magnetic Variation 22.825° W

METAR

SBRJ 241200Z 02004KT 5000 BR FEW020 23/19 Q1024

Decode

TAF

TAF SBRJ 240800Z 2412/2424 35005KT 9999 SCT020 BKN040 TX26/2416Z TN20/2424Z BECMG 2414/2416 15010KT 7000 SCT017 RMK PGU

Decode

Destination Runways

ID Width Length Bearing (true) Bearing (mag) Surface Threshold Offset Overrun Length
02L 98 ft / 30 m 4,154 ft / 1,266 m 358.02° 20.85° Asphalt 0 ft / 0 m 80 ft / 24 m
02R 138 ft / 42 m 4,361 ft / 1,329 m 358.01° 20.84° Asphalt 0 ft / 0 m 80 ft / 24 m
20L 138 ft / 42 m 4,361 ft / 1,329 m 178.01° 200.84° Asphalt 0 ft / 0 m 80 ft / 24 m
20R 98 ft / 30 m 4,154 ft / 1,266 m 178.02° 200.85° Asphalt 0 ft / 0 m 95 ft / 29 m

Approach Navaids

Runway Type Ident Frequency Range Bearing (true) Bearing (mag) Slope Elevation
20L Localiser IRJ 111.10 MHz 18 nm / 33 km 172.42° 195.25° - 11 ft / 3 m (AMSL)

Popular Alternatives